TimeAKDT,TemperatureF,Dew PointF,Humidity,Sea Level PressureIn,VisibilityMPH,Wind Direction,Wind SpeedMPH,Gust SpeedMPH,PrecipitationIn,Events,Conditions,WindDirDegrees,DateUTC
12:16 AM,48.2,46.4,93,29.55,10.0,West,4.6,-,N/A,,Mostly Cloudy,270,2012-09-03 08:16:00
12:36 AM,50.0,46.4,87,29.54,10.0,East,8.1,-,N/A,,Overcast,80,2012-09-03 08:36:00
12:56 AM,53.6,44.6,72,29.53,10.0,East,8.1,-,N/A,,Overcast,90,2012-09-03 08:56:00
1:16 AM,51.8,44.6,76,29.53,10.0,Calm,Calm,-,N/A,,Overcast,0,2012-09-03 09:16:00
1:36 AM,53.6,44.6,72,29.52,10.0,East,8.1,-,N/A,,Overcast,100,2012-09-03 09:36:00
1:56 AM,53.6,44.6,72,29.52,10.0,East,9.2,-,N/A,,Overcast,100,2012-09-03 09:56:00
2:16 AM,53.6,44.6,72,29.51,10.0,East,10.4,-,N/A,,Overcast,90,2012-09-03 10:16:00
2:36 AM,53.6,44.6,72,29.50,10.0,East,10.4,-,N/A,,Overcast,100,2012-09-03 10:36:00
2:56 AM,53.6,44.6,72,29.49,10.0,East,9.2,-,N/A,,Overcast,90,2012-09-03 10:56:00
3:16 AM,53.6,44.6,72,29.50,10.0,East,3.5,-,N/A,,Overcast,90,2012-09-03 11:16:00
3:36 AM,53.6,44.6,72,29.49,10.0,East,4.6,-,N/A,,Overcast,90,2012-09-03 11:36:00
3:56 AM,51.8,46.4,82,29.49,10.0,WSW,3.5,-,N/A,,Overcast,250,2012-09-03 11:56:00
4:16 AM,51.8,46.4,82,29.50,10.0,Calm,Calm,-,N/A,,Overcast,0,2012-09-03 12:16:00
4:36 AM,51.8,46.4,82,29.50,10.0,Calm,Calm,-,N/A,,Overcast,0,2012-09-03 12:36:00
4:56 AM,50.0,46.4,87,29.49,10.0,Calm,Calm,-,N/A,,Overcast,0,2012-09-03 12:56:00
5:16 AM,51.8,46.4,82,29.49,10.0,Calm,Calm,-,N/A,,Overcast,0,2012-09-03 13:16:00
5:36 AM,51.8,48.2,88,29.48,10.0,Calm,Calm,-,N/A,,Overcast,0,2012-09-03 13:36:00
5:56 AM,51.8,46.4,82,29.49,10.0,Calm,Calm,-,N/A,,Overcast,0,2012-09-03 13:56:00
6:16 AM,51.8,46.4,82,29.48,10.0,East,4.6,-,N/A,,Overcast,100,2012-09-03 14:16:00
6:36 AM,53.6,46.4,77,29.47,10.0,East,4.6,-,N/A,,Overcast,80,2012-09-03 14:36:00
6:56 AM,51.8,46.4,82,29.47,10.0,East,3.5,-,N/A,,Overcast,100,2012-09-03 14:56:00
7:16 AM,51.8,46.4,82,29.47,10.0,Calm,Calm,-,N/A,,Overcast,0,2012-09-03 15:16:00
7:36 AM,51.8,46.4,82,29.48,10.0,East,3.5,-,N/A,,Overcast,80,2012-09-03 15:36:00
7:56 AM,53.6,46.4,77,29.48,10.0,ESE,5.8,-,N/A,,Overcast,110,2012-09-03 15:56:00
8:16 AM,51.8,48.2,88,29.48,10.0,Calm,Calm,-,N/A,,Overcast,0,2012-09-03 16:16:00
8:36 AM,51.8,48.2,88,29.49,10.0,WNW,3.5,-,N/A,,Overcast,300,2012-09-03 16:36:00
8:56 AM,51.8,48.2,88,29.49,10.0,ESE,3.5,-,N/A,,Overcast,110,2012-09-03 16:56:00
9:16 AM,51.8,48.2,88,29.50,10.0,West,4.6,-,N/A,,Overcast,280,2012-09-03 17:16:00
9:36 AM,51.8,48.2,88,29.49,10.0,North,-9999.0,-,N/A,,Overcast,0,2012-09-03 17:36:00
9:56 AM,53.6,48.2,82,29.51,10.0,NW,3.5,-,N/A,,Overcast,310,2012-09-03 17:56:00
10:16 AM,53.6,48.2,82,29.51,10.0,West,4.6,-,N/A,,Overcast,270,2012-09-03 18:16:00
10:36 AM,53.6,48.2,82,29.51,10.0,WNW,12.7,-,N/A,,Overcast,290,2012-09-03 18:36:00
10:56 AM,53.6,48.2,82,29.51,10.0,West,11.5,-,N/A,,Overcast,270,2012-09-03 18:56:00
11:16 AM,53.6,48.2,82,29.53,10.0,West,10.4,-,N/A,,Overcast,280,2012-09-03 19:16:00
11:36 AM,53.6,48.2,82,29.54,10.0,WNW,6.9,-,N/A,,Overcast,290,2012-09-03 19:36:00
11:56 AM,53.6,46.4,77,29.54,10.0,West,9.2,-,N/A,,Overcast,270,2012-09-03 19:56:00
12:16 PM,53.6,46.4,77,29.54,10.0,WSW,10.4,16.1,N/A,,Overcast,250,2012-09-03 20:16:00
12:36 PM,53.6,46.4,77,29.55,10.0,WSW,12.7,16.1,N/A,,Overcast,250,2012-09-03 20:36:00
12:56 PM,53.6,44.6,72,29.55,10.0,WSW,12.7,21.9,N/A,,Overcast,240,2012-09-03 20:56:00
1:16 PM,53.6,44.6,72,29.56,10.0,SW,11.5,19.6,N/A,,Mostly Cloudy,230,2012-09-03 21:16:00
1:36 PM,55.4,44.6,67,29.56,10.0,WSW,15.0,23.0,N/A,,Scattered Clouds,240,2012-09-03 21:36:00
1:56 PM,53.6,44.6,72,29.57,10.0,SW,13.8,21.9,N/A,,Mostly Cloudy,230,2012-09-03 21:56:00
2:16 PM,53.6,44.6,72,29.57,10.0,SW,10.4,-,N/A,,Overcast,230,2012-09-03 22:16:00
2:36 PM,53.6,44.6,72,29.58,10.0,SW,10.4,17.3,N/A,,Overcast,230,2012-09-03 22:36:00
2:56 PM,53.6,44.6,72,29.57,10.0,SW,9.2,-,N/A,,Overcast,220,2012-09-03 22:56:00
3:16 PM,55.4,44.6,67,29.58,10.0,SSW,8.1,-,N/A,,Mostly Cloudy,210,2012-09-03 23:16:00
3:36 PM,55.4,44.6,67,29.58,10.0,SW,12.7,-,N/A,,Scattered Clouds,220,2012-09-03 23:36:00
3:56 PM,51.8,44.6,76,29.60,5.0,SW,10.4,31.1,N/A,,Scattered Clouds,220,2012-09-03 23:56:00
4:16 PM,51.8,46.4,82,29.60,7.0,SW,10.4,17.3,N/A,,Mostly Cloudy,230,2012-09-04 00:16:00
4:36 PM,51.8,46.4,82,29.61,5.0,SSW,6.9,17.3,N/A,,Mostly Cloudy,210,2012-09-04 00:36:00
4:56 PM,51.8,46.4,82,29.61,10.0,SW,8.1,16.1,N/A,,Mostly Cloudy,220,2012-09-04 00:56:00
5:16 PM,51.8,44.6,76,29.61,10.0,SSW,12.7,21.9,N/A,,Overcast,200,2012-09-04 01:16:00
5:36 PM,53.6,44.6,72,29.62,10.0,SW,6.9,16.1,N/A,,Mostly Cloudy,220,2012-09-04 01:36:00
5:56 PM,53.6,42.8,67,29.63,10.0,SW,17.3,23.0,N/A,,Mostly Cloudy,230,2012-09-04 01:56:00
6:16 PM,55.4,41.0,58,29.63,10.0,SW,15.0,23.0,N/A,,Mostly Cloudy,220,2012-09-04 02:16:00
6:36 PM,53.6,42.8,67,29.64,10.0,SW,8.1,18.4,N/A,,Scattered Clouds,220,2012-09-04 02:36:00
6:56 PM,53.6,39.2,58,29.65,10.0,SW,10.4,19.6,N/A,,Clear,220,2012-09-04 02:56:00
7:16 PM,53.6,41.0,62,29.65,10.0,SSW,13.8,20.7,N/A,,Partly Cloudy,210,2012-09-04 03:16:00
7:36 PM,53.6,39.2,58,29.66,10.0,SSW,8.1,-,N/A,,Partly Cloudy,200,2012-09-04 03:36:00
7:56 PM,53.6,41.0,62,29.67,10.0,SSW,8.1,-,N/A,,Mostly Cloudy,210,2012-09-04 03:56:00
8:16 PM,51.8,39.2,62,29.68,10.0,SW,5.8,16.1,N/A,,Mostly Cloudy,220,2012-09-04 04:16:00
8:36 PM,51.8,39.2,62,29.68,10.0,SW,9.2,-,N/A,,Mostly Cloudy,230,2012-09-04 04:36:00
8:56 PM,51.8,39.2,62,29.69,10.0,SSW,11.5,19.6,N/A,,Mostly Cloudy,200,2012-09-04 04:56:00
9:16 PM,51.8,39.2,62,29.70,10.0,SSW,9.2,17.3,N/A,,Mostly Cloudy,210,2012-09-04 05:16:00
9:36 PM,51.8,39.2,62,29.71,10.0,South,9.2,-,N/A,,Partly Cloudy,180,2012-09-04 05:36:00
9:56 PM,50.0,39.2,66,29.72,10.0,South,8.1,-,N/A,,Clear,180,2012-09-04 05:56:00
10:16 PM,50.0,39.2,66,29.72,10.0,SSW,9.2,-,N/A,,Scattered Clouds,200,2012-09-04 06:16:00
10:36 PM,51.8,39.2,62,29.72,10.0,SSW,12.7,18.4,N/A,,Mostly Cloudy,200,2012-09-04 06:36:00
10:56 PM,51.8,39.2,62,29.73,10.0,SSW,10.4,-,N/A,,Partly Cloudy,200,2012-09-04 06:56:00
11:16 PM,51.8,39.2,62,29.73,10.0,SSW,8.1,18.4,N/A,,Clear,200,2012-09-04 07:16:00
11:36 PM,51.8,39.2,62,29.75,10.0,South,12.7,16.1,N/A,,Partly Cloudy,190,2012-09-04 07:36:00
11:56 PM,50.0,39.2,66,29.75,10.0,SSW,10.4,19.6,N/A,,Partly Cloudy,200,2012-09-04 07:56:00